Regional Weather Roundup
Issued by NWS

Home | Current Version | Previous Version | Text Only | Print | Product List | Glossary Off
Versions: 1 2 3 4 5 6 7 8 9 10 11 12 13 14 15 16 17 18 19 20 21 22 23 24 25 26 27 28 29 30 31 32 33 34 35 36 37 38 39 40 41 42 43 44 45 46 47 48 49 50

000
ASUS43 KDTX 260901
RWRMI
MICHIGAN HOURLY REGIONAL WEATHER ROUNDUP
NATIONAL WEATHER SERVICE DETROIT/PONTIAC MI
400 AM EST MON JAN 26 2015

NOTE: "FAIR" INDICATES FEW OR NO CLOUDS BELOW 12,000 FEET WITH NO
SIGNIFICANT WEATHER AND/OR OBSTRUCTION TO VISIBILITY.

MIZ047>049-052>055-059>063-066>070-074>076-081>083-261000-
SOUTHEAST LOWER MICHIGAN

CITY           SKY/WX    TMP DP  RH WIND       PRES   REMARKS
ADRIAN         CLEAR     14   6  70 NE9       29.93S WCI   2
ALMA           FLURRIES   8   6  91 N3        29.99F
ANN ARBOR      CLEAR     13   6  74 N8        29.93S WCI   2
BAD AXE        MOCLDY    13   9  85 CALM      30.00R
CARO           FLURRIES  14   9  80 NE3       29.98S
DETROIT CITY   PTCLDY    14   2  58 NE10      29.95F WCI   1
DETROIT        CLOUDY    15   3  59 N8        29.95S WCI   4
FLINT          CLEAR     13   7  77 N8        29.96F WCI   2
GROSSE ILE     MOCLDY    14   5  67 N9        29.92F WCI   2
HILLSDALE      CLEAR     12   8  84 N5        29.90S WCI   4
HOWELL         CLEAR     11   8  89 NE3       29.93F

CITY           SKY/WX    TMP DP  RH WIND       PRES   REMARKS
JACKSON        CLEAR     12   7  80 N6        29.93F WCI   3
LAMBERTVILLE   PTCLDY    18   5  57 NE6       29.93R WCI   9
LANSING        PTCLDY    11   8  88 N5        29.98S WCI   3
LAPEER         FAIR       7   5  92 CALM      29.96S
MASON          CLEAR     12   8  83 N5        29.95R WCI   4
MONROE         PTCLDY    16   3  57 NE7       29.91S WCI   6
MT. CLEMENS    PTCLDY    12   3  69 N8        29.93F WCI   0
PONTIAC        PTCLDY    10   5  80 N5        29.93S WCI   2
PORT HOPE        N/A     17   9  70 E12       29.99F WCI   4
PORT HURON     PTCLDY     9   3  78 N5        29.96F WCI   0
TRI CITIES     MOCLDY    11   6  81 N5        30.00F WCI   3
TROY           PTCLDY    16   6  65 NE8       29.97S WCI   5
SAGINAW HB     CLEAR     14  10  85 CALM      30.00F
$$
MIZ043>046-050>051-056>058-064>065-071>073-077>080-261000-
SOUTHWEST LOWER MICHIGAN

CITY           SKY/WX    TMP DP  RH WIND       PRES   REMARKS
BATTLE CREEK   CLEAR     13   7  77 NE5       29.95S WCI   5
BENTON HARBOR  CLEAR     12   8  84 CALM      29.97F
BIG RAPIDS     PTCLDY     5   3  91 CALM      29.98S
COLDWATER      FAIR      12   8  83 NE6       29.93S WCI   2
FREMONT        FAIR       6   2  83 E5        29.98F WCI  -3
HOLLAND        CLEAR     13   7  77 NE5       29.99F WCI   5
GRAND RAPIDS   PTCLDY    11   7  84 N5        29.98S WCI   3
IONIA          FAIR      11   8  87 NE6       29.96F WCI   1
KALAMAZOO      CLEAR     13   7  77 NE3       29.96S
LUDINGTON      CLEAR      4   0  81 CALM      30.02F
MARSHALL       CLEAR     11   8  86 CALM      29.94S
MOUNT PLEASANT PTCLDY     5   2  86 CALM      29.99F
MUSKEGON       CLEAR     11   5  77 NE3       30.00F
SOUTH HAVEN    PTCLDY    15   9  78 CALM      29.98S
$$
MIZ016>042-261000-
NORTHERN LOWER MICHIGAN

CITY           SKY/WX    TMP DP  RH WIND       PRES   REMARKS
ALPENA         PTCLDY    -4  -9  79 CALM      30.03F
BEAVER ISLAND  PTCLDY    -5  -8  84 CALM      30.01F
BELLAIRE       PTCLDY    -6 -11  81 CALM      30.03F
CADILLAC       PTCLDY    -6 -12  77 CALM      29.95F
CHARLEVOIX     PTCLDY    -1  -4  85 E3        30.04F
FRANKFORT      PTCLDY     2  -1  85 CALM      30.01F
GAYLORD        MOCLDY   -14 -19  79 CALM      29.96F
GRAYLING       PTCLDY   -12 -18  75 CALM      29.99F
HARBOR SPRINGS PTCLDY    -6 -10  82 NE5       30.01F WCI -17
HOUGHTON LAKE  PTCLDY    -6 -12  75 CALM      29.97F
MANISTEE       PTCLDY     3  -2  78 E5        30.01F WCI  -6
OSCODA         CLOUDY    11   8  85 NW3       30.01F
PELLSTON       MOCLDY   -16 -21  78 CALM      30.03F
ROGERS CITY    MOCLDY    -4  -6  90 S3        30.04F
TRAVERSE CITY  PTCLDY     4   0  83 CALM      30.01F
$$
MIZ007>008-015-261000-
EASTERN UPPER MICHIGAN

CITY           SKY/WX    TMP DP  RH WIND       PRES   REMARKS
KINROSS        MOCLDY    -2  -6  84 SE3       30.02F
MACKINAC ISLAN MOCLDY     2  -2  85 S3        30.02F
NEWBERRY       MOCLDY    -4  -8  84 S5        30.00F WCI -15
S. S. MARIE    MOCLDY    -5 -10  79 E5        30.04F WCI -16
$$
MIZ004>006-011>014-085-261000-
CENTRAL UPPER MICHIGAN

CITY           SKY/WX    TMP DP  RH WIND       PRES   REMARKS
MANISTIQUE     MOCLDY     4   1  88 SE5       29.99F WCI  -6
ESCANABA       MOCLDY    -2  -6  84 CALM      29.98F
MENOMINEE      PTCLDY     5   1  85 CALM      29.99S
SAWYER-GWINN   MOCLDY     1  -2  85 SW3       29.92F
$$
MIZ001>003-009>011-084-261000-
WESTERN UPPER MICHIGAN

CITY           SKY/WX    TMP DP  RH WIND       PRES   REMARKS
IRON MOUNTAIN  CLOUDY     0  -5  79 CALM      29.93F
HOUGHTON       CLOUDY    10   4  76 S8        29.88F WCI  -2
COPPER HARBOR    N/A     18  10  71 SW5       29.91F WCI  11
IRONWOOD       CLOUDY    18   9  68 SW8       29.83F WCI   7
$$

ABBREVIATIONS USED IN REMARKS
   TC - TEMPERATURE IN CELSIUS
  WCI - WIND CHILL INDEX
   HX - HEAT INDEX
  VSB - VISIBILITY



USA.gov is the U.S. government's official web portal to all federal, state and local government web resources and services.